TimeAKST,TemperatureF,Dew PointF,Humidity,Sea Level PressureIn,VisibilityMPH,Wind Direction,Wind SpeedMPH,Gust SpeedMPH,PrecipitationIn,Events,Conditions,WindDirDegrees,DateUTC
12:16 AM,21.2,12.2,68,29.75,10.0,SW,6.9,-,N/A,,Overcast,220,2013-02-06 09:16:00
12:36 AM,21.2,14.0,74,29.75,10.0,SW,4.6,-,N/A,,Overcast,220,2013-02-06 09:36:00
12:56 AM,21.2,17.6,86,29.75,10.0,SW,6.9,-,N/A,,Overcast,220,2013-02-06 09:56:00
1:36 AM,21.2,14.0,74,29.74,7.0,SW,4.6,-,N/A,,Overcast,220,2013-02-06 10:36:00
1:56 AM,21.2,12.2,68,29.75,10.0,SW,4.6,-,N/A,,Overcast,220,2013-02-06 10:56:00
2:16 AM,21.2,12.2,68,29.75,10.0,SW,3.5,-,N/A,,Overcast,220,2013-02-06 11:16:00
2:36 AM,21.2,10.4,63,29.75,10.0,SW,3.5,-,N/A,,Overcast,220,2013-02-06 11:36:00
3:16 AM,21.2,15.8,80,29.75,10.0,SW,3.5,-,N/A,,Overcast,220,2013-02-06 12:16:00
3:36 AM,21.2,14.0,74,29.75,10.0,SW,3.5,-,N/A,,Overcast,220,2013-02-06 12:36:00
3:56 AM,21.2,14.0,74,29.75,10.0,SW,4.6,-,N/A,,Overcast,220,2013-02-06 12:56:00
4:16 AM,21.2,12.2,68,29.75,10.0,SW,3.5,-,N/A,,Overcast,220,2013-02-06 13:16:00
4:36 AM,21.2,12.2,68,29.75,10.0,Calm,Calm,-,N/A,,Overcast,0,2013-02-06 13:36:00
4:56 AM,21.2,14.0,74,29.75,10.0,Calm,Calm,-,N/A,,Overcast,0,2013-02-06 13:56:00
5:16 AM,21.2,10.4,63,29.75,10.0,SW,4.6,-,N/A,,Overcast,220,2013-02-06 14:16:00
5:36 AM,21.2,12.2,68,29.74,10.0,Calm,Calm,-,N/A,,Overcast,0,2013-02-06 14:36:00
5:56 AM,21.2,15.8,80,29.75,10.0,SW,4.6,-,N/A,,Overcast,220,2013-02-06 14:56:00
6:16 AM,21.2,12.2,68,29.74,10.0,SW,3.5,-,N/A,,Overcast,220,2013-02-06 15:16:00
6:36 AM,21.2,12.2,68,29.74,10.0,SW,4.6,-,N/A,,Overcast,220,2013-02-06 15:36:00
6:56 AM,21.2,12.2,68,29.74,10.0,SW,3.5,-,N/A,,Overcast,220,2013-02-06 15:56:00
7:16 AM,21.2,12.2,68,29.74,10.0,SW,3.5,-,N/A,,Overcast,220,2013-02-06 16:16:00
7:36 AM,21.2,10.4,63,29.73,10.0,SW,3.5,-,N/A,,Overcast,220,2013-02-06 16:36:00
7:56 AM,21.2,10.4,63,29.73,10.0,SW,5.8,-,N/A,,Overcast,220,2013-02-06 16:56:00
8:16 AM,21.2,10.4,63,29.73,10.0,Calm,Calm,-,N/A,,Overcast,0,2013-02-06 17:16:00
8:36 AM,21.2,10.4,63,29.73,10.0,Calm,Calm,-,N/A,,Overcast,0,2013-02-06 17:36:00
8:56 AM,21.2,12.2,68,29.73,10.0,SW,3.5,-,N/A,,Overcast,220,2013-02-06 17:56:00
9:16 AM,21.2,12.2,68,29.73,10.0,SW,4.6,-,N/A,,Overcast,220,2013-02-06 18:16:00
9:36 AM,21.2,12.2,68,29.72,10.0,SW,4.6,-,N/A,,Overcast,220,2013-02-06 18:36:00
9:56 AM,21.2,12.2,68,29.73,10.0,SW,3.5,-,N/A,,Overcast,220,2013-02-06 18:56:00
10:16 AM,21.2,10.4,63,29.73,10.0,Calm,Calm,-,N/A,,Overcast,0,2013-02-06 19:16:00
10:36 AM,21.2,14.0,74,29.71,10.0,SW,3.5,-,N/A,,Overcast,220,2013-02-06 19:36:00
10:56 AM,21.2,10.4,63,29.71,10.0,Calm,Calm,-,N/A,,Overcast,0,2013-02-06 19:56:00
11:16 AM,21.2,12.2,68,29.70,10.0,SW,3.5,-,N/A,,Overcast,220,2013-02-06 20:16:00
11:36 AM,21.2,12.2,68,29.70,10.0,Calm,Calm,-,N/A,,Overcast,0,2013-02-06 20:36:00
11:56 AM,21.2,12.2,68,29.70,10.0,Calm,Calm,-,N/A,,Overcast,0,2013-02-06 20:56:00
12:36 PM,21.2,10.4,63,29.67,10.0,SW,3.5,-,N/A,,Overcast,220,2013-02-06 21:36:00
12:56 PM,21.2,12.2,68,29.66,10.0,SW,3.5,-,N/A,,Scattered Clouds,220,2013-02-06 21:56:00
1:16 PM,21.2,12.2,68,29.65,10.0,SW,3.5,-,N/A,,Partly Cloudy,220,2013-02-06 22:16:00
1:36 PM,21.2,12.2,68,29.64,10.0,SW,4.6,-,N/A,,Mostly Cloudy,220,2013-02-06 22:36:00
1:56 PM,21.2,12.2,68,29.63,10.0,SW,6.9,-,N/A,,Mostly Cloudy,220,2013-02-06 22:56:00
2:16 PM,21.2,12.2,68,29.61,10.0,SW,9.2,-,N/A,,Mostly Cloudy,220,2013-02-06 23:16:00
2:36 PM,21.2,12.2,68,29.59,10.0,SW,9.2,-,N/A,,Overcast,220,2013-02-06 23:36:00
2:56 PM,23.0,14.0,68,29.58,10.0,SW,9.2,-,N/A,,Overcast,220,2013-02-06 23:56:00
3:16 PM,23.0,15.8,74,29.56,10.0,SW,9.2,-,N/A,,Overcast,220,2013-02-07 00:16:00
3:36 PM,23.0,15.8,74,29.55,10.0,SW,11.5,-,N/A,,Overcast,220,2013-02-07 00:36:00
3:56 PM,23.0,15.8,74,29.53,10.0,SW,11.5,-,N/A,,Overcast,220,2013-02-07 00:56:00
4:16 PM,23.0,17.6,80,29.52,10.0,SW,10.4,-,N/A,,Overcast,220,2013-02-07 01:16:00
4:36 PM,24.8,17.6,74,29.50,4.0,SW,12.7,-,N/A,,Overcast,220,2013-02-07 01:36:00
4:56 PM,23.0,17.6,80,29.48,2.5,SW,9.2,-,N/A,,Overcast,220,2013-02-07 01:56:00
5:16 PM,24.8,17.6,74,29.48,1.8,SW,4.6,-,N/A,,Overcast,220,2013-02-07 02:16:00
5:36 PM,28.4,24.8,86,29.46,1.5,SW,3.5,-,N/A,,Overcast,220,2013-02-07 02:36:00
5:56 PM,30.2,21.2,69,29.42,10.0,SE,19.6,24.2,N/A,,Overcast,140,2013-02-07 02:56:00
6:16 PM,30.2,21.2,69,29.41,7.0,SE,21.9,-,N/A,,Overcast,140,2013-02-07 03:16:00
6:36 PM,30.2,23.0,75,29.41,10.0,SE,19.6,-,N/A,,Overcast,140,2013-02-07 03:36:00
6:56 PM,32.0,21.2,64,29.37,10.0,SE,23.0,27.6,N/A,,Overcast,140,2013-02-07 03:56:00
7:16 PM,33.8,24.8,70,29.36,10.0,SE,24.2,31.1,N/A,,Overcast,140,2013-02-07 04:16:00
7:36 PM,33.8,24.8,70,29.34,10.0,SE,21.9,34.5,N/A,,Overcast,130,2013-02-07 04:36:00
7:56 PM,33.8,24.8,70,29.32,10.0,SE,25.3,31.1,N/A,,Overcast,140,2013-02-07 04:56:00
8:16 PM,35.6,24.8,65,29.30,10.0,SE,25.3,29.9,N/A,,Overcast,140,2013-02-07 05:16:00
8:36 PM,35.6,26.6,70,29.29,10.0,SE,24.2,29.9,N/A,,Overcast,140,2013-02-07 05:36:00
8:56 PM,37.4,26.6,65,29.27,10.0,SE,27.6,39.1,N/A,,Overcast,130,2013-02-07 05:56:00
9:16 PM,37.4,26.6,65,29.24,10.0,SE,29.9,43.7,N/A,,Overcast,140,2013-02-07 06:16:00
9:36 PM,37.4,26.6,65,29.23,10.0,SE,34.5,44.9,N/A,,Overcast,140,2013-02-07 06:36:00
9:56 PM,39.2,28.4,65,29.23,10.0,SE,28.8,42.6,N/A,,Overcast,140,2013-02-07 06:56:00
10:16 PM,39.2,26.6,61,29.21,10.0,SE,35.7,42.6,N/A,,Overcast,140,2013-02-07 07:16:00
10:36 PM,39.2,26.6,61,29.21,10.0,SE,31.1,40.3,N/A,,Overcast,140,2013-02-07 07:36:00
10:56 PM,39.2,26.6,61,29.21,10.0,SE,28.8,40.3,N/A,,Overcast,140,2013-02-07 07:56:00
11:16 PM,37.4,28.4,70,29.21,10.0,SSE,31.1,38.0,N/A,,Overcast,150,2013-02-07 08:16:00
11:36 PM,37.4,28.4,70,29.20,10.0,SSE,29.9,36.8,N/A,,Overcast,150,2013-02-07 08:36:00
11:56 PM,37.4,28.4,70,29.21,10.0,SSE,27.6,35.7,N/A,,Overcast,150,2013-02-07 08:56:00